DW9209 Weather Reports


time (UTC)temp
F
wind
direction
speed
knots
gust
knots
rain 1hr
in
rain 24hr
in
rain mn
in
humidity
%
barometer
mb
20260507171505 64 333 5.2 0.0 0.00 0.00 0.00 52 1007.4
20260507170001 63 359 4.3 0.0 0.00 0.00 0.00 48 1007.7
20260507164606 63 305 6.1 0.0 0.00 0.00 0.00 48 1007.9
20260507163053 62 316 4.3 0.0 0.00 0.00 0.00 55 1008.2
20260507161604 61 274 3.5 0.0 0.00 0.00 0.00 50 1008.2
20260507160101 61 297 5.2 0.0 0.00 0.00 0.00 50 1008.5
20260507154541 62 314 5.2 0.0 0.00 0.00 0.00 56 1008.4
20260507153036 60 305 5.2 0.0 0.00 0.00 0.00 58 1008.8
20260507151531 59 298 3.5 0.0 0.00 0.00 0.00 60 1008.9
20260507150029 58 311 5.2 0.0 0.00 0.00 0.00 58 1009.4
20260507144541 55 295 3.5 0.0 0.00 0.00 0.00 66 1009.6
20260507143029 54 335 2.6 0.0 0.00 0.00 0.00 64 1009.7
20260507141528 53 290 5.2 0.0 0.00 0.00 0.00 65 1009.8
20260507140029 53 288 3.5 0.0 0.00 0.00 0.00 68 1010.1
20260507134525 53 330 4.3 0.0 0.00 0.00 0.00 69 1010.3
20260507133024 52 325 5.2 0.0 0.00 0.00 0.00 67 1010.1
20260507131528 52 302 4.3 0.0 0.00 0.00 0.00 67 1010.2
20260507130030 53 353 2.6 0.0 0.00 0.00 0.00 68 1010.2
20260507124522 52 354 3.5 0.0 0.00 0.00 0.00 69 1010.4
20260507123029 52 274 3.5 0.0 0.00 0.00 0.00 65 1010.1
20260507121521 52 323 3.5 0.0 0.00 0.00 0.00 67 1010.0
20260507120019 52 274 0.9 0.0 0.00 0.00 0.00 68 1010.0
20260507114519 52 323 2.6 0.0 0.00 0.00 0.00 66 1009.9
20260507113026 52 333 3.5 0.0 0.00 0.00 0.00 67 1009.5
20260507111516 52 326 4.3 0.0 0.00 0.00 0.00 65 1009.7
20260507110014 52 307 2.6 0.0 0.00 0.00 0.00 65 1009.7
20260507104511 52 347 1.7 0.0 0.00 0.00 0.00 68 1009.4
20260507103010 52 359 2.6 0.0 0.00 0.00 0.00 69 1009.2
20260507101514 53 4 0.9 0.0 0.00 0.00 0.00 70 1008.9
20260507100007 53 342 1.7 0.0 0.00 0.00 0.00 72 1008.9
20260507094506 53 69 1.7 0.0 0.00 0.00 0.00 73 1008.8
20260507093003 53 341 2.6 0.0 0.00 0.00 0.00 74 1008.7
20260507091503 53 347 2.6 0.0 0.00 0.00 0.00 76 1008.5
20260507090000 53 21 0.0 0.0 0.00 0.00 0.00 80 1008.6
20260507084601 53 357 0.9 0.0 0.00 0.00 0.00 78 1008.4
20260507083059 54 274 1.7 0.0 0.00 0.00 0.00 78 1008.3
20260507081557 54 339 1.7 0.0 0.00 0.00 0.00 78 1008.3
20260507080056 54 330 4.3 0.0 0.00 0.00 0.00 78 1007.8
20260507074559 54 354 3.5 0.0 0.00 0.00 0.00 78 1007.8
20260507073055 54 328 4.3 0.0 0.00 0.00 0.00 78 1007.8
20260507071554 54 325 4.3 0.0 0.00 0.00 0.00 78 1007.7
20260507070054 54 328 4.3 0.0 0.00 0.00 0.00 78 1007.7
20260507064606 54 310 3.5 0.0 0.00 0.00 0.00 78 1007.8
20260507063054 54 1 4.3 0.0 0.00 0.00 0.00 78 1008.2
20260507061548 55 314 5.2 0.0 0.00 0.00 0.00 78 1008.3
20260507060052 55 321 4.3 0.0 0.00 0.00 0.00 80 1008.2
20260507054544 55 299 3.5 0.0 0.00 0.00 0.00 81 1008.2
20260507053042 55 295 2.6 0.0 0.00 0.00 0.00 83 1007.8
20260507051538 56 330 2.6 0.0 0.00 0.00 0.00 83 1008.1
20260507050040 56 317 4.3 0.0 0.00 0.00 0.00 82 1008.2
20260507044535 56 283 3.5 0.0 0.00 0.00 0.00 82 1007.8
20260507043033 56 315 3.5 0.0 0.00 0.00 0.00 82 1008.2
20260507041546 56 295 2.6 0.0 0.00 0.00 0.00 82 1007.9
20260507040027 57 283 5.2 0.0 0.00 0.00 0.00 81 1007.9
20260507034526 57 313 7.8 0.0 0.00 0.00 0.01 80 1007.8
20260507033021 58 263 5.2 0.0 0.00 0.00 0.01 80 1007.4
20260507031518 58 312 6.1 0.0 0.00 0.00 0.01 79 1007.6
20260507030017 58 336 7.8 0.0 0.00 0.00 0.01 80 1007.6
20260507024514 59 333 5.2 0.0 0.00 0.00 0.01 81 1007.1
20260507023011 59 314 6.1 0.0 0.00 0.00 0.01 82 1007.2
20260507021509 59 316 5.2 0.0 0.00 0.00 0.01 83 1006.8
20260507020009 60 330 5.2 0.0 0.00 0.00 0.01 83 1006.9
20260507014517 61 309 4.3 0.0 0.00 0.00 0.01 85 1007.0
20260507013024 61 290 3.5 0.0 0.00 0.00 0.01 85 1006.7
20260507011506 61 300 5.2 0.0 0.00 0.00 0.01 85 1006.6
20260507010006 62 23 4.3 0.0 0.00 0.00 0.01 87 1006.7
20260507004504 62 327 6.1 0.0 0.00 0.00 0.01 87 1006.6
20260507003004 63 302 6.1 0.0 0.00 0.00 0.01 86 1006.6
20260507001503 64 297 5.2 0.0 0.00 0.00 0.01 85 1006.3
20260507000012 65 287 5.2 0.0 0.00 0.00 0.01 86 1006.2
20260506234504 65 300 4.3 0.0 0.00 0.00 0.01 86 1006.0
20260506233003 66 244 1.7 0.0 0.00 0.00 0.01 86 1005.5
20260506231502 67 245 1.7 0.0 0.00 0.00 0.01 85 1005.3
20260506230001 67 194 0.0 0.0 0.00 0.00 0.01 84 1004.9
20260506224501 67 241 0.0 0.0 0.00 0.00 0.01 85 1005.0
20260506223004 67 241 0.0 0.0 0.00 0.00 0.01 85 1004.9
20260506221604 67 241 0.9 0.0 0.00 0.00 0.01 86 1004.9
20260506220100 67 240 0.9 0.0 0.00 0.00 0.01 85 1004.7
20260506214610 67 250 0.0 0.0 0.00 0.00 0.01 84 1004.8
20260506213059 67 222 1.7 0.0 0.00 0.00 0.01 84 1004.8
20260506211559 67 193 2.6 0.0 0.00 0.00 0.01 82 1004.5
20260506210116 68 230 2.6 0.0 0.00 0.00 0.01 81 1004.2
20260506204558 69 189 3.5 0.0 0.00 0.00 0.01 80 1003.9
20260506203102 69 187 4.3 0.0 0.00 0.00 0.01 80 1004.0
20260506201556 69 262 4.3 0.0 0.00 0.00 0.01 81 1004.2
20260506200137 69 236 4.3 0.0 0.00 0.00 0.01 81 1004.2
20260506194604 69 144 5.2 0.0 0.00 0.00 0.01 80 1004.2
20260506193055 69 257 4.3 0.0 0.00 0.00 0.01 80 1004.2
20260506191552 69 203 3.5 0.0 0.00 0.00 0.01 83 1004.4
20260506190051 68 183 5.2 0.0 0.00 0.00 0.01 80 1004.5
20260506184554 68 132 4.3 0.0 0.00 0.00 0.01 83 1004.3
20260506183053 67 173 6.1 0.0 0.00 0.00 0.01 81 1004.7
20260506181550 67 219 4.3 0.0 0.00 0.00 0.01 84 1004.7
20260506180053 66 192 4.3 0.0 0.00 0.00 0.01 83 1004.7
20260506174550 66 205 5.2 0.0 0.00 0.00 0.01 83 1004.8
20260506173059 66 182 6.1 0.0 0.00 0.00 0.01 86 1005.1